EW5589 Weather Reports


time (UTC)temp
F
wind
direction
speed
knots
gust
knots
rain 1hr
in
rain 24hr
in
rain mn
in
humidity
%
barometer
mb
20260510030029 54 76 1.7 5.2 0.00 0.16 0.16 87 1005.6
20260510024529 54 75 1.7 4.3 0.00 0.16 0.16 86 1005.5
20260510023031 54 69 2.6 5.2 0.00 0.16 0.16 86 1005.3
20260510021530 54 53 2.6 5.2 0.00 0.16 0.16 87 1005.3
20260510020027 55 59 2.6 5.2 0.00 0.16 0.16 87 1004.9
20260510014526 55 57 4.3 7.0 0.00 0.16 0.16 86 1005.0
20260510013026 55 84 4.3 7.8 0.02 0.16 0.16 85 1004.9
20260510011522 55 48 5.2 9.6 0.03 0.16 0.16 87 1004.6
20260510010022 53 85 0.9 7.0 0.12 0.16 0.16 88 1004.6
20260510004505 54 24 6.1 10.4 0.16 0.16 0.16 89 1004.1
20260510003004 53 85 1.7 6.1 0.14 0.14 0.14 91 1005.1
20260510001503 53 150 4.3 9.6 0.13 0.13 0.13 88 1004.9
20260510000001 57 111 7.0 15.6 0.01 0.01 0.01 77 1005.4
20260509234506 58 302 0.0 0.0 0.00 0.00 0.00 69 1002.9
20260509233100 59 302 0.0 1.7 0.00 0.00 0.00 70 1002.4
20260509231500 61 136 0.0 0.0 0.00 0.00 0.00 64 1002.3
20260509230105 62 231 0.0 1.7 0.00 0.00 0.00 65 1002.7
20260509224603 64 160 0.0 0.0 0.00 0.00 0.00 64 1002.7
20260509223103 64 174 0.0 4.3 0.00 0.00 0.00 59 1002.8
20260509221600 66 72 5.2 9.6 0.00 0.00 0.00 58 1003.0
20260509220058 66 72 3.5 10.4 0.00 0.00 0.00 57 1002.7
20260509214557 66 338 5.2 12.2 0.00 0.00 0.00 58 1002.7
20260509213059 66 35 5.2 13.9 0.00 0.00 0.00 59 1002.7
20260509211541 66 193 11.3 13.9 0.00 0.00 0.00 61 1002.8
20260509210047 66 195 9.6 15.6 0.00 0.00 0.00 60 1002.6
20260509204539 66 194 8.7 14.8 0.00 0.00 0.00 63 1002.6
20260509203051 66 176 7.8 13.0 0.00 0.00 0.00 62 1002.6
20260509201535 66 162 8.7 13.0 0.00 0.00 0.00 63 1002.9
20260509200035 65 149 7.8 13.0 0.00 0.00 0.00 62 1003.2
20260509194532 64 231 3.5 6.1 0.00 0.00 0.00 67 1003.5
20260509193025 62 334 0.9 3.5 0.00 0.00 0.00 72 1003.6
20260509191504 60 66 5.2 9.6 0.00 0.00 0.00 73 1003.7
20260509190008 60 34 5.2 10.4 0.00 0.00 0.00 74 1003.8
20260509184601 59 59 3.5 10.4 0.00 0.00 0.00 76 1004.1
20260509183040 58 56 3.5 12.2 0.00 0.00 0.00 76 1004.4
20260509181549 57 61 3.5 10.4 0.00 0.00 0.00 75 1004.7
20260509180018 58 51 5.2 9.6 0.00 0.00 0.00 77 1005.0
20260509174518 57 55 4.3 8.7 0.00 0.00 0.00 77 1005.0
20260509173110 57 60 4.3 10.4 0.00 0.00 0.00 78 1005.1
20260509171557 56 78 4.3 9.6 0.00 0.00 0.00 77 1005.2
20260509170048 57 77 3.5 10.4 0.00 0.00 0.00 77 1005.4
20260509164538 58 19 6.1 10.4 0.00 0.00 0.00 76 1005.5
20260509163024 59 46 3.5 7.0 0.00 0.00 0.00 73 1005.7
20260509161514 58 39 3.5 8.7 0.00 0.00 0.00 77 1006.1
20260509160056 57 84 3.5 7.8 0.00 0.00 0.00 78 1006.2
20260509154604 56 72 4.3 8.7 0.00 0.00 0.00 78 1006.4
20260509153035 57 33 4.3 7.8 0.00 0.00 0.00 75 1006.5
20260509151538 58 41 3.5 7.0 0.00 0.00 0.00 75 1006.6
20260509150015 58 70 3.5 7.0 0.00 0.00 0.00 77 1006.6
20260509144517 58 108 2.6 5.2 0.00 0.00 0.00 77 1006.8
20260509143104 57 168 1.7 5.2 0.00 0.00 0.00 78 1007.0
20260509141549 57 198 4.3 7.0 0.00 0.00 0.00 79 1006.9
20260509140035 56 135 4.3 7.8 0.00 0.00 0.00 79 1007.0
20260509134534 56 151 3.5 7.8 0.00 0.00 0.00 81 1007.1
20260509133029 55 124 5.2 7.8 0.00 0.00 0.00 81 1007.3
20260509131529 54 141 5.2 7.8 0.00 0.00 0.00 81 1007.6
20260509130025 53 108 2.6 4.3 0.00 0.00 0.00 80 1007.7
20260509124520 52 126 0.9 2.6 0.00 0.00 0.00 79 1008.0
20260509123018 51 127 0.0 0.0 0.00 0.02 0.00 79 1008.0
20260509121514 50 126 0.0 3.5 0.00 0.02 0.00 79 1007.9
20260509120056 49 127 1.7 4.3 0.00 0.02 0.00 78 1007.9
20260509114552 48 160 0.9 2.6 0.00 0.02 0.00 79 1008.0
20260509113039 48 160 1.7 3.5 0.00 0.02 0.00 78 1008.1
20260509111536 47 160 1.7 4.3 0.00 0.02 0.00 77 1008.0
20260509110033 47 360 1.7 4.3 0.00 0.02 0.00 77 1008.0
20260509104541 46 360 1.7 4.3 0.00 0.02 0.00 77 1007.9
20260509103031 46 360 1.7 3.5 0.00 0.02 0.00 76 1007.8
20260509101536 46 360 1.7 3.5 0.00 0.02 0.00 75 1007.8
20260509100028 46 360 2.6 5.2 0.00 0.02 0.00 75 1007.8
20260509094532 45 360 2.6 4.3 0.00 0.02 0.00 76 1007.9
20260509093010 45 360 1.7 2.6 0.00 0.02 0.00 76 1007.8
20260509091508 45 360 1.7 2.6 0.00 0.02 0.00 77 1007.9
20260509090056 45 360 1.7 3.5 0.00 0.02 0.00 76 1008.0
20260509084548 45 360 1.7 2.6 0.00 0.02 0.00 76 1008.1
20260509083035 45 360 2.6 4.3 0.00 0.02 0.00 75 1008.2
20260509081547 46 360 1.7 3.5 0.00 0.02 0.00 74 1008.2
20260509080031 46 360 2.6 3.5 0.00 0.02 0.00 73 1008.4
20260509074530 46 360 2.6 4.3 0.00 0.02 0.00 72 1008.5
20260509073040 46 360 2.6 4.3 0.00 0.02 0.02 73 1008.7
20260509071528 46 360 2.6 4.3 0.00 0.02 0.02 73 1008.7
20260509070038 46 360 1.7 3.5 0.00 0.02 0.02 73 1008.9
20260509064525 46 360 2.6 4.3 0.00 0.02 0.02 72 1009.0
20260509063004 47 360 2.6 4.3 0.00 0.02 0.02 72 1009.1
20260509061503 47 360 2.6 5.2 0.00 0.02 0.02 71 1009.3
20260509060056 47 360 3.5 5.2 0.00 0.02 0.02 73 1009.5
20260509054543 47 360 2.6 3.5 0.00 0.02 0.02 73 1009.6
20260509053024 48 360 1.7 3.5 0.00 0.02 0.02 74 1009.9
20260509051523 48 360 1.7 3.5 0.00 0.02 0.02 73 1010.0
20260509050008 48 360 1.7 3.5 0.00 0.02 0.02 73 1010.0
20260509044506 48 360 1.7 3.5 0.00 0.02 0.02 75 1010.1
20260509043050 48 360 1.7 3.5 0.00 0.03 0.02 74 1010.2
20260509041547 48 360 1.7 3.5 0.00 0.03 0.02 74 1010.3
20260509040030 48 360 1.7 4.3 0.00 0.03 0.02 75 1010.4
20260509034530 49 360 2.6 3.5 0.00 0.03 0.02 75 1010.5
20260509033015 48 360 2.6 4.3 0.00 0.04 0.02 75 1010.6
20260509031510 48 360 2.6 4.3 0.00 0.04 0.02 75 1010.6